EDT,Max TemperatureF,Mean TemperatureF,Min TemperatureF,Max Dew PointF,MeanDew PointF,Min DewpointF,Max Humidity, Mean Humidity, Min Humidity, Max Sea Level PressureIn, Mean Sea Level PressureIn, Min Sea Level PressureIn, Max VisibilityMiles, Mean VisibilityMiles, Min VisibilityMiles, Max Wind SpeedMPH, Mean Wind SpeedMPH, Max Gust SpeedMPH,PrecipitationIn, CloudCover, Events, WindDirDegrees
2013-3-1,51,42,32,32,29,27,87,65,44,29.95,29.92,29.87,10,10,10,13,5,20,0.00,3,,268
2013-3-2,46,40,32,32,29,25,87,70,46,29.96,29.91,29.87,10,10,10,15,7,23,0.00,6,,268
2013-3-3,46,38,30,28,21,18,87,57,34,30.03,29.97,29.92,10,10,10,14,5,21,0.00,0,,274
2013-3-4,59,44,30,32,24,18,69,48,27,30.16,30.07,30.01,10,10,10,9,4,,0.00,0,,244
2013-3-5,69,56,42,55,42,30,88,66,49,30.05,29.89,29.67,10,10,3,20,7,31,0.00,5,Rain-Thunderstorm,198
2013-3-6,44,38,33,30,26,19,81,61,49,30.12,29.98,29.82,10,10,10,20,12,34,0.00,4,,279
2013-3-7,59,44,28,32,30,27,100,64,34,30.22,30.16,30.11,10,10,7,8,1,,0.00,0,,257
2013-3-8,62,47,32,32,29,25,87,53,26,30.29,30.22,30.16,10,10,10,6,1,,0.00,0,,360
2013-3-9,64,50,37,34,30,25,70,46,28,30.31,30.24,30.18,10,10,10,8,1,,0.00,0,,77
2013-3-10,69,58,46,50,40,30,82,51,32,30.23,30.15,30.09,10,10,10,13,5,20,0.00,0,,113
2013-3-11,68,59,50,55,51,46,100,77,56,30.11,29.95,29.80,10,9,2,16,8,24,0.00,5,Rain,129
2013-3-12,64,52,41,55,40,32,100,66,32,30.03,29.88,29.76,10,9,2,13,8,20,0.00,3,Rain,264
2013-3-13,59,47,35,34,27,21,87,48,25,30.18,30.10,30.04,10,10,10,16,5,25,0.00,0,,281
2013-3-14,55,42,30,25,21,18,69,44,23,30.32,30.22,30.17,10,10,10,10,3,16,0.00,0,,283
2013-3-15,73,53,33,41,32,18,87,45,27,30.19,30.10,29.97,10,10,10,13,4,23,0.00,0,,232
2013-3-16,77,64,51,43,39,36,71,44,22,30.00,29.94,29.86,10,10,10,16,8,28,0.00,0,,216
2013-3-17,71,60,50,54,49,37,88,62,42,30.00,29.95,29.90,10,10,10,10,5,17,0.00,1,,205
2013-3-18,60,52,44,55,52,45,100,94,77,30.02,29.93,29.80,10,6,1,10,3,17,0.00,7,Rain-Thunderstorm,84
2013-3-19,69,56,42,50,36,21,100,60,17,30.03,29.95,29.85,10,7,0,12,3,21,0.00,3,Fog-Rain,285
2013-3-20,60,50,39,34,26,19,76,42,22,30.11,29.98,29.86,10,10,10,14,2,21,0.00,2,,252
2013-3-21,51,42,33,30,19,7,75,43,19,29.93,29.88,29.85,10,10,10,15,6,24,0.00,0,,281
2013-3-22,50,42,35,36,27,18,75,54,39,30.05,30.00,29.93,10,10,7,6,1,,0.00,6,Rain,161
2013-3-23,53,48,42,50,43,36,100,86,66,30.01,29.91,29.83,10,8,1,12,2,,0.00,8,Rain-Thunderstorm,56
2013-3-24,48,47,44,46,45,43,100,96,87,29.81,29.61,29.54,10,6,1,12,3,22,0.00,8,Rain-Thunderstorm,32
2013-3-25,46,40,35,45,26,21,93,54,37,30.01,29.81,29.61,10,10,10,18,11,34,0.00,6,,270
2013-3-26,46,39,32,28,25,23,81,62,43,30.21,30.08,29.99,10,10,10,15,7,26,0.00,3,,277
2013-3-27,55,42,30,28,26,23,87,56,29,30.29,30.22,30.18,10,10,10,12,4,17,0.00,0,,274
2013-3-28,62,47,32,32,27,19,93,50,22,30.31,30.24,30.17,10,10,4,10,2,21,0.00,0,,282
2013-3-29,68,52,37,37,30,25,75,45,26,30.31,30.24,30.16,10,10,10,7,1,,0.00,2,,200
2013-3-30,73,60,46,55,41,32,100,51,33,30.18,30.09,30.00,10,10,5,10,3,16,0.00,5,Rain,226
2013-3-31,71,63,55,61,54,52,100,77,50,30.02,29.93,29.85,10,9,2,13,4,21,0.00,7,Rain-Thunderstorm,224